Clarksburg, WV

12:29 AM EST on December 12, 2019 (GMT -0500)
Benedum

Weather History for KCKB - October, 2019

Change the Weather History Date:

Wednesday, October 2, 2019

  Actual Average Record
Temperature  
Mean Temperature 80 °F -  
Max Temperature 93 °F 70 °F 94 °F (1927)
Min Temperature 66 °F 47 °F 29 °F (1947)
Cooling Degree Days 15    
Month to date cooling degree days 30  
Year to date cooling degree days 1310  
Growing Degree Days 28 (Base 50)    
Moisture  
Dew Point 62 °F    
Average Humidity 62    
Maximum Humidity 87    
Minimum Humidity 36    
Precipitation  
Precipitation 0.00 in - - ()
Month to date precipitation 0.00  
Year to date precipitation 32.07  
Sea Level Pressure  
Sea Level Pressure 29.93 in    
Wind  
Wind Speed 5 mph (WSW)    
Max Wind Speed 18 mph    
Max Gust Speed 29 mph    
Visibility 10 miles    
Events      
Averages and records for this station are not official NWS values.
T = Trace of Precipitation, MM = Missing Value Source: NWS Daily Summary

Daily Weather History Graph

Daily Weather History Graph

Search for Another Location

Airport or City:

Astronomy

Oct. 02, 2019 Rise Set
Actual Time 7:17 AM EDT 7:02 PM EDT
Civil Twilight 6:50 AM EDT 7:28 PM EDT
Nautical Twilight 6:19 AM EDT 7:59 PM EDT
Astronomical Twilight 5:48 AM EDT 8:31 PM EDT
Moon 11:40 AM EDT (10/2) 9:56 PM EDT (10/2)
Length of Visible Light 12h 37m
Length of Day
11h 44m
Waxing Crescent, 20% of the Moon is Illuminated
Oct 2
Waxing Crescent
Oct 5
First Quarter
Oct 13
Full
Oct 21
Last Quarter
Oct 27
New

Hourly Weather History & Observations

Time (EDT) Temp. Heat Index Dew Point Humidity Pressure Visibility Wind Dir Wind Speed Gust Speed Precip Events Conditions
12:53 AM 69.1 °F - 64.0 °F 84% 29.94 in 9.0 mi Calm Calm - N/A   Clear
1:53 AM 69.1 °F - 63.0 °F 81% 29.94 in 9.0 mi Calm Calm - N/A   Clear
2:53 AM 68.0 °F - 63.0 °F 84% 29.94 in 8.0 mi Calm Calm - N/A   Clear
3:53 AM 66.9 °F - 62.1 °F 84% 29.94 in 7.0 mi Calm Calm - N/A   Mostly Cloudy
4:53 AM 68.0 °F - 63.0 °F 84% 29.95 in 9.0 mi Calm Calm - N/A   Mostly Cloudy
5:53 AM 69.1 °F - 63.0 °F 81% 29.95 in 10.0 mi Calm Calm - N/A   Mostly Cloudy
6:53 AM 69.1 °F - 63.0 °F 81% 29.96 in 9.0 mi Calm Calm - N/A   Scattered Clouds
7:53 AM 70.0 °F - 63.0 °F 78% 29.97 in 9.0 mi Calm Calm - N/A   Partly Cloudy
8:53 AM 73.9 °F - 64.9 °F 73% 29.97 in 10.0 mi Calm Calm - N/A   Clear
9:53 AM 79.0 °F - 64.0 °F 60% 29.98 in 10.0 mi SW 6.9 mph - N/A   Scattered Clouds
10:53 AM 82.0 °F 83.4 °F 64.0 °F 54% 29.97 in 10.0 mi Variable 4.6 mph - N/A   Clear
11:53 AM 86.0 °F 87.3 °F 64.0 °F 48% 29.96 in 10.0 mi WSW 10.4 mph - N/A   Clear
12:53 PM 90.0 °F 90.6 °F 63.0 °F 40% 29.94 in 10.0 mi WNW 10.4 mph 18.4 mph N/A   Partly Cloudy
1:53 PM 91.0 °F 91.9 °F 63.0 °F 39% 29.91 in 10.0 mi WNW 13.8 mph 24.2 mph N/A   Scattered Clouds
2:53 PM 91.0 °F 90.5 °F 60.1 °F 35% 29.89 in 10.0 mi West 12.7 mph 20.7 mph N/A   Clear
3:53 PM 91.9 °F 91.5 °F 60.1 °F 34% 29.88 in 10.0 mi West 11.5 mph - N/A   Partly Cloudy
4:53 PM 91.9 °F 91.5 °F 60.1 °F 34% 29.87 in 10.0 mi West 11.5 mph - N/A   Clear
5:53 PM 91.0 °F 90.5 °F 60.1 °F 35% 29.87 in 10.0 mi West 6.9 mph - N/A   Clear
6:53 PM 88.0 °F 87.6 °F 60.1 °F 39% 29.87 in 10.0 mi West 8.1 mph - N/A   Clear
7:53 PM 86.0 °F 85.7 °F 60.1 °F 41% 29.89 in 10.0 mi WSW 6.9 mph - N/A   Mostly Cloudy
8:53 PM 81.0 °F 81.7 °F 61.0 °F 50% 29.91 in 10.0 mi SW 3.5 mph - N/A   Clear
9:53 PM 82.0 °F 83.0 °F 62.1 °F 51% 29.91 in 10.0 mi SSW 3.5 mph - N/A   Mostly Cloudy
10:53 PM 78.1 °F - 62.1 °F 58% 29.91 in 10.0 mi South 3.5 mph - N/A   Clear
11:53 PM 78.1 °F - 62.1 °F 58% 29.90 in 10.0 mi Calm Calm - N/A   Clear